(211526) = 2003 QO73

Discovered at Socorro on 2003-08-25 by LINEAR.

Orbit

Orbit type: Main Belt

Note: WebGL enabled browser required.

epoch2024-03-31.0
epoch JD2460400.5
perihelion date2022-12-01.44190
perihelion JD2459914.94190
argument of perihelion (°)78.00092
ascending node (°)308.84229
inclination (°)3.21498
eccentricity0.2180271
perihelion distance (AU)1.8962585
Tisserand w.r.t. Jupiter3.5
ΔV w.r.t. Earth (km/sec)8.7
semimajor axis (AU)2.4249670
mean anomaly (°)126.73207
mean daily motion (°/day)0.26100290
aphelion distance (AU)2.954
period (years)3.78
P-vector [x]0.89104644
P-vector [y]0.39158280
P-vector [z]0.22956296
Q-vector [x]-0.45180547
Q-vector [y]0.81379315
Q-vector [z]0.36553048
absolute magnitude17.14
phase slope0.15
uncertainty0
referenceE2024-GI3
observations used519
oppositions15
arc length (days)8506
first opposition used2000
last opposition used2024
residual rms (arc-secs)0.64
perturbers coarse indicatorM-v
perturbers precise indicator003Ek
first observation date used2000-12-28.0
last observation date used2024-04-12.0
computer nameMPCLINUX
JD of orbit computation2456819.650103
perihelion JD uncertainty (days)6.8024E-05
argument of perihelion uncertainty (°)1.2898E-04
ascending node uncertainty (°)1.2736E-04
inclination uncertainty (°)5.1783E-06
eccentricity uncertainty 6.7421E-08
perihelion distance uncertainty (AU)1.5662E-07
Minimum Orbit Intersection Distances (in AU)
for orbit epoch: 2460400.5, reference: E2024-GI3
Mercury1.56386
Venus1.17755
Earth0.90388
Mars0.45955
Jupiter2.50753
Saturn6.62836
Uranus15.5879
Neptune27.7112

Observations

516 total observations over interval: 2000 12 28.46790 – 2024 03 05.303078
These data are available for download (format description).

Date (UT) J2000 RA J2000 Dec Magn Location Ref
2000 12 28.46790 09 25 10.33 +15 47 34.4 21.1 V 691 – Steward Observatory, Kitt Peak-Spacewatch MPS 176990
2000 12 28.50539 09 25 09.14 +15 47 36.7 21.0 V 691 – Steward Observatory, Kitt Peak-Spacewatch MPS 176990
2000 12 28.53741 09 25 08.14 +15 47 38.6 21.1 V 691 – Steward Observatory, Kitt Peak-Spacewatch MPS 176990
2003 07 24.44718 22 38 17.25 -07 21 11.4 19.5   644 – Palomar Mountain/NEAT MPS 176990
2003 07 24.45994 22 38 17.03 -07 21 10.4 19.5   644 – Palomar Mountain/NEAT MPS 176990
2003 07 24.47698 22 38 16.74 -07 21 09.4 19.8   644 – Palomar Mountain/NEAT MPS 176990
2003 08 25.29631 22 17 13.44 -07 59 03.4 19.6   704 – Lincoln Laboratory ETS, New Mexico MPS 83526
2003 08 25.30885 22 17 12.67 -07 59 03.9 19.6   704 – Lincoln Laboratory ETS, New Mexico MPS 83526
2003 08 25.32116 22 17 11.94 -07 59 05.5 19.7   704 – Lincoln Laboratory ETS, New Mexico MPS 83526
2003 08 26.92120 22 15 41.59 -08 03 44.3 20.0 R 106 – Crni Vrh MPS 84124
2003 08 26.93002 22 15 41.12 -08 03 45.9 20.4 R 106 – Crni Vrh MPS 84124
2003 08 26.93883 22 15 40.59 -08 03 47.5 20.0 R 106 – Crni Vrh MPS 84124
2003 08 27.92278 22 14 44.77 -08 06 40.1 18.2 R 106 – Crni Vrh MPS 83526
2003 08 27.93583 22 14 44.06 -08 06 42.5 18.2 R 106 – Crni Vrh MPS 83526
2003 08 27.95056 22 14 43.16 -08 06 45.0 18.4 R 106 – Crni Vrh MPS 83526
2003 09 01.24449 22 10 40.56 -08 19 31.6 18.7   704 – Lincoln Laboratory ETS, New Mexico MPS 84124
2003 09 01.25635 22 10 39.90 -08 19 35.3 19.5   704 – Lincoln Laboratory ETS, New Mexico MPS 84124
2003 09 01.26810 22 10 39.14 -08 19 37.3 19.7   704 – Lincoln Laboratory ETS, New Mexico MPS 84124
2003 09 01.27996 22 10 38.43 -08 19 37.5 19.3   704 – Lincoln Laboratory ETS, New Mexico MPS 84124
2003 09 01.29185 22 10 37.75 -08 19 42.4 19.6   704 – Lincoln Laboratory ETS, New Mexico MPS 84124
2003 09 24.18940 21 53 47.09 -09 14 18.6 19.4   644 – Palomar Mountain/NEAT MPS 176990
2003 09 24.21019 21 53 46.47 -09 14 20.5 19.4   644 – Palomar Mountain/NEAT MPS 176990
2003 09 24.23142 21 53 45.86 -09 14 21.8 19.4   644 – Palomar Mountain/NEAT MPS 176990
2003 10 24.10197 21 56 26.94 -08 48 00.1 20.1   704 – Lincoln Laboratory ETS, New Mexico MPS 176990
2003 10 24.11434 21 56 27.27 -08 47 58.8 20.3   704 – Lincoln Laboratory ETS, New Mexico MPS 176990
2003 10 24.13869 21 56 28.14 -08 47 53.8 20.0   704 – Lincoln Laboratory ETS, New Mexico MPS 176990
2005 03 11.27459 10 10 13.60 +08 43 20.4 20.5 R G96 – Mt. Lemmon Survey MPS 176990
2005 03 11.28123 10 10 13.26 +08 43 21.6 20.1 R G96 – Mt. Lemmon Survey MPS 176990
2005 03 11.28784 10 10 12.92 +08 43 23.6 19.9 R G96 – Mt. Lemmon Survey MPS 176990
2005 03 11.29446 10 10 12.59 +08 43 24.6 20.2 R G96 – Mt. Lemmon Survey MPS 176990
2007 10 06.34167 01 36 21.54 +16 47 02.3 18.7 R 699 – Lowell Observatory-LONEOS MPS 255197
2007 10 06.36343 01 36 20.46 +16 47 00.1   699 – Lowell Observatory-LONEOS MPS 255197
2007 10 06.38518 01 36 19.47 +16 46 56.4   699 – Lowell Observatory-LONEOS MPS 255197
2007 10 06.40692 01 36 18.29 +16 46 53.9   699 – Lowell Observatory-LONEOS MPS 255197
2007 10 07.97287 01 35 04.84 +16 43 08.2 18.1 R 106 – Crni Vrh MPS 218574
2007 10 07.97863 01 35 04.50 +16 43 07.5 18.0 R 106 – Crni Vrh MPS 218574
2007 10 07.98441 01 35 04.33 +16 43 06.7 18.1 R 106 – Crni Vrh MPS 218574
2007 10 07.99016 01 35 03.97 +16 43 06.4 18.5 R 106 – Crni Vrh MPS 218574
2007 10 09.25640 01 34 02.75 +16 39 45.6 19.2   704 – Lincoln Laboratory ETS, New Mexico MPS 218574
2007 10 09.26742 01 34 02.22 +16 39 45.0 19.1   704 – Lincoln Laboratory ETS, New Mexico MPS 218574
2007 10 09.27840 01 34 01.59 +16 39 42.4 18.9   704 – Lincoln Laboratory ETS, New Mexico MPS 218574
2007 10 09.28937 01 34 01.00 +16 39 40.0 19.0   704 – Lincoln Laboratory ETS, New Mexico MPS 218574
2007 10 09.30033 01 34 00.44 +16 39 38.9 19.0   704 – Lincoln Laboratory ETS, New Mexico MPS 218574
2007 10 11.22984 01 32 24.46 +16 33 52.4 18.4 V 703 – Catalina Sky Survey MPS 220391
2007 10 11.23774 01 32 24.03 +16 33 50.6 18.4 V 703 – Catalina Sky Survey MPS 220391
2007 10 11.24569 01 32 23.64 +16 33 49.1 18.4 V 703 – Catalina Sky Survey MPS 220391
2007 10 11.25284 01 32 23.24 +16 33 48.2 18.4 V 703 – Catalina Sky Survey MPS 220391
2007 10 12.25393 01 31 32.24 +16 30 31.4 18.4   704 – Lincoln Laboratory ETS, New Mexico MPS 220391
2007 10 12.26516 01 31 31.60 +16 30 29.0 18.9   704 – Lincoln Laboratory ETS, New Mexico MPS 220391
2007 10 12.27639 01 31 30.99 +16 30 26.9 18.8   704 – Lincoln Laboratory ETS, New Mexico MPS 220391
2007 10 12.28771 01 31 30.39 +16 30 24.9 19.0   704 – Lincoln Laboratory ETS, New Mexico MPS 220391
2007 10 12.28821 01 31 30.43 +16 30 23.3 18.6 r 699 – Lowell Observatory-LONEOS MPS 220391
2007 10 12.29893 01 31 29.76 +16 30 22.8 18.7   704 – Lincoln Laboratory ETS, New Mexico MPS 220391
2007 10 12.31383 01 31 29.04 +16 30 18.3 18.8 r 699 – Lowell Observatory-LONEOS MPS 220391
2007 10 12.33944 01 31 27.61 +16 30 13.1 18.5 r 699 – Lowell Observatory-LONEOS MPS 220391
2007 10 12.36506 01 31 26.23 +16 30 07.6 18.5 r 699 – Lowell Observatory-LONEOS MPS 220391
2007 10 12.37611 01 31 25.60 +16 30 06.0 18.0 V G96 – Mt. Lemmon Survey MPS 220391
2007 10 12.38169 01 31 25.28 +16 30 05.0 18.0 V G96 – Mt. Lemmon Survey MPS 220391
2007 10 12.38721 01 31 24.99 +16 30 03.7 18.0 V G96 – Mt. Lemmon Survey MPS 220391
2007 10 12.39275 01 31 24.70 +16 30 02.4 18.0 V G96 – Mt. Lemmon Survey MPS 220391
2007 10 15.25357 01 28 56.86 +16 19 41.5 18.8   704 – Lincoln Laboratory ETS, New Mexico MPS 220391
2007 10 15.26482 01 28 56.13 +16 19 39.6 20.0   704 – Lincoln Laboratory ETS, New Mexico MPS 220391
2007 10 15.27606 01 28 55.54 +16 19 35.8 18.6   704 – Lincoln Laboratory ETS, New Mexico MPS 220391
2007 10 15.28730 01 28 54.94 +16 19 33.9 18.8   704 – Lincoln Laboratory ETS, New Mexico MPS 220391
2007 10 15.29858 01 28 54.27 +16 19 31.6 18.8   704 – Lincoln Laboratory ETS, New Mexico MPS 220391
2007 10 20.26471 01 24 34.52 +15 58 40.0 18.1   704 – Lincoln Laboratory ETS, New Mexico MPS 222466
2007 10 20.27639 01 24 33.84 +15 58 37.7 18.2   704 – Lincoln Laboratory ETS, New Mexico MPS 222466
2007 10 20.29909 01 24 32.58 +15 58 30.9 18.8   704 – Lincoln Laboratory ETS, New Mexico MPS 222466
2007 10 20.30214 01 24 32.50 +15 58 30.3 18.3 V 703 – Catalina Sky Survey MPS 222466
2007 10 20.31027 01 24 32.04 +15 58 27.1 18.5 V 703 – Catalina Sky Survey MPS 222466
2007 10 20.31839 01 24 31.53 +15 58 25.1 18.5 V 703 – Catalina Sky Survey MPS 222466
2007 10 20.32650 01 24 31.14 +15 58 23.5 18.6 V 703 – Catalina Sky Survey MPS 222466
2007 10 22.26488 01 22 51.50 +15 49 28.4 18.9   704 – Lincoln Laboratory ETS, New Mexico MPS 222466
2007 10 22.27659 01 22 50.85 +15 49 25.5 18.7   704 – Lincoln Laboratory ETS, New Mexico MPS 222466
2007 10 22.28822 01 22 50.25 +15 49 22.5 19.0   704 – Lincoln Laboratory ETS, New Mexico MPS 222466
2007 10 22.29983 01 22 49.57 +15 49 18.4 18.9   704 – Lincoln Laboratory ETS, New Mexico MPS 222466
2007 10 30.20478 01 16 31.36 +15 10 33.4 18.1 V 703 – Catalina Sky Survey MPS 223387
2007 10 30.21256 01 16 31.00 +15 10 30.6 18.2 V 703 – Catalina Sky Survey MPS 223387
2007 10 30.21902 01 16 30.68 +15 10 28.8 18.7 V 703 – Catalina Sky Survey MPS 223387
2007 10 30.22550 01 16 30.36 +15 10 25.9 18.6 V 703 – Catalina Sky Survey MPS 223387
2007 11 02.24759 01 14 23.92 +14 55 20.0 19.4   704 – Lincoln Laboratory ETS, New Mexico MPS 224754
2007 11 02.25922 01 14 23.44 +14 55 16.2 19.5   704 – Lincoln Laboratory ETS, New Mexico MPS 224754
2007 11 02.27087 01 14 22.95 +14 55 12.7 19.7   704 – Lincoln Laboratory ETS, New Mexico MPS 224754
2007 11 02.28250 01 14 22.43 +14 55 09.7 19.5   704 – Lincoln Laboratory ETS, New Mexico MPS 224754
2007 11 02.29415 01 14 21.90 +14 55 06.2 19.5   704 – Lincoln Laboratory ETS, New Mexico MPS 224754
2007 11 03.19531 01 13 47.28 +14 50 37.6 18.8 V G96 – Mt. Lemmon Survey MPS 224754
2007 11 03.20244 01 13 46.99 +14 50 35.5 18.7 V G96 – Mt. Lemmon Survey MPS 224754
2007 11 03.20949 01 13 46.66 +14 50 33.5 18.7 V G96 – Mt. Lemmon Survey MPS 224754
2007 11 03.21670 01 13 46.38 +14 50 31.4 18.7 V G96 – Mt. Lemmon Survey MPS 224754
2007 11 07.19983 01 11 27.46 +14 31 19.8 18.8   704 – Lincoln Laboratory ETS, New Mexico MPS 224754
